Location: Innsbruck
(47.2657°N, 11.3914°E)
Time: 12:11:57
(UTC+01:00)

XW-2F - Pass Details

Date: 15 December 2021
Orbit: 495 x 515 km, 97.5° (Epoch: 16 January)

Event Time Altitude Azimuth Distance (km) Brightness Sun altitude
Rises 06:22:12 0° 15° (NNE) 2,644 ? -14.8°
Reaches altitude 10° 06:24:20 10° 19° (NNE) 1,750 ? -14.5°
Maximum altitude 06:28:04 63° 101° (E) 576 ? -13.9°
Drops below altitude 10° 06:31:45 10° 183° (S) 1,723 ? -13.3°
Sets 06:33:51 0° 187° (S) 2,600 ? -13.0°
